COSMOS 2251 DEB

Satellite information

Favourite Embed

Satellite Type and Status

DEBRISIN ORBIT

Key statistics

Satellite COSMOS 2251 DEB at a glance.

Uptime

11773

Days in orbit

Revolutions

≈ 15.0

Per day

Orbit

LEO

Low Earth Orbit

Inclination

74.0

Latest

Satellite identification and parameters

Extended collection of information and parameters for COSMOS 2251 DEB.

Object identification

Identified? True

Debris? True

Object name: COSMOS 2251 DEB

International designator: 1993-036AUQ

Object number (NORAD): 35901

Object ID (CCSDS): 35901

Country: COMMONWEALTH OF INDEPENDENT STATES (CIS)

Current information (Y/N): Y

RCS size: SMALL

Orbital parameters

Period: 96.316 minutes

Inclination: 74.0142 deg

SMA: 6960.269 km

Apoapsis: 590.312 km

Periapsis: 573.956 km

RAAN: 230.6889 deg

Eccentricy: 0.00117494

Argument of periapsis: 313.6038 deg

Mean anomaly: 219.1614 deg

Mean motion: 14.9507751 rev/day

Mean motion (dot): 0.00052212 rev/day2

B* drag term: 0.0047258556 1/REarth

Two-line elements (TLE)

Creation date: Sept. 2, 2025, 3:25 a.m.

Reference frame: TEME

Reference center: EARTH

Epoch: Sept. 1, 2025, 5:02 p.m. UTC

TLE line 0: 0 COSMOS 2251 DEB

TLE line 1: 1 35901U 93036AUQ 25244.70976047 .00052212 00000-0 47259-2 0 9997

TLE line 2: 2 35901 74.0142 230.6889 0011749 313.6038 219.1614 14.95077510845965

Live tracking on map

Real-time ground track for satellite COSMOS 2251 DEB.

In-orbit conjunctions

A list of the most updated potential collisions computed for object COSMOS 2251 DEB.

Target Orbit TCA Probability of collision Miss distance Type
CZ-2C R/B SSO 2025-06-03 22:19:35 0.0001377112 804.0 (m) ROCKET BODY
ALOS DEB SSO 2024-11-19 12:16:00 0.0001258028 46.0 (m) DEBRIS

Associated space launch

Military communications satellite. Destroyed in a collision with Iridium 33.

COSMOS 2251 DEB was lifted into orbit during the mission ‘Kosmos-3M | Strela-2M 51’, on board a Kosmos-3M space rocket.

The launch took place on June 16, 1993, 4:17 a.m. from 132/1 (132L).

For more information about the launch, click the button.

Launch to space Kosmos-3M | Strela-2M 51
Kosmos-3M | Strela-2M 51

Agency: N/A

Status: Launch Successful

Launch date: June 16, 1993, 4:17 a.m. UTC

Rocket: Kosmos-3M

Launch pad: 132/1 (132L)

Location: Plesetsk Cosmodrome, Russian Federation

...

Latest news about this satellite

There are no fresh news available about this satellite. Check back as we update our databases every day.


Newsletter sign-up

Weekly statistics, charts and insights to help you stay on top of the space industry.